N617G KTMB-KJAX

Flight info

Callsign N617G
Flight time 0h 55m
Altitude 43000
Route FLMGO2 STYMY ORL HAINY QUBEN2
Aircraft C700/M-SBDGHM1RWXY/LB2

Departure

Time 2026-04-24 00:23
Airport Miami Executive Airport (KTMB)

Arrival

Time 2026-04-24 01:19
Airport Jacksonville International Airport (KJAX)
Time Latitude Longitude Altitude Speed Heading
2026-04-24 00:06 25.64559 -80.42517 19 ft 0 kts 356°
2026-04-24 00:18 25.64553 -80.42504 22 ft 8 kts 171°
2026-04-24 00:19 25.64530 -80.42571 20 ft 13 kts 266°
2026-04-24 00:19 25.64525 -80.42637 18 ft 7 kts 251°
2026-04-24 00:19 25.64500 -80.42652 19 ft 0 kts 204°
2026-04-24 00:20 25.64490 -80.42650 19 ft 11 kts 170°
2026-04-24 00:20 25.64460 -80.42711 19 ft 22 kts 268°
2026-04-24 00:20 25.64453 -80.42890 16 ft 22 kts 267°
2026-04-24 00:21 25.64445 -80.43060 14 ft 18 kts 267°
2026-04-24 00:21 25.64436 -80.43242 11 ft 11 kts 267°
2026-04-24 00:21 25.64428 -80.43400 10 ft 29 kts 266°
2026-04-24 00:21 25.64419 -80.43672 13 ft 39 kts 267°
2026-04-24 00:22 25.64408 -80.43914 15 ft 35 kts 267°
2026-04-24 00:22 25.64401 -80.44050 19 ft 7 kts 266°
2026-04-24 00:22 25.64351 -80.44087 20 ft 14 kts 179°
2026-04-24 00:22 25.64294 -80.44056 21 ft 0 kts 90°
2026-04-24 00:23 25.64294 -80.44008 18 ft 39 kts 88°
2026-04-24 00:23 25.64324 -80.43293 76 ft 136 kts 88°
2026-04-24 00:23 25.64380 -80.42243 1123 ft 156 kts 88°
2026-04-24 00:23 25.64491 -80.40859 1661 ft 181 kts 84°
2026-04-24 00:24 25.64681 -80.39447 2309 ft 194 kts 83°
2026-04-24 00:24 25.64874 -80.37948 2944 ft 207 kts 83°
2026-04-24 00:24 25.65082 -80.36246 3600 ft 236 kts 83°
2026-04-24 00:24 25.65314 -80.34363 4246 ft 250 kts 83°
2026-04-24 00:25 25.65551 -80.32397 4881 ft 261 kts 83°
2026-04-24 00:25 25.65793 -80.30353 4998 ft 270 kts 83°
2026-04-24 00:25 25.66030 -80.28320 4996 ft 263 kts 83°
2026-04-24 00:25 25.66261 -80.26315 4999 ft 263 kts 83°
2026-04-24 00:26 25.66493 -80.24304 5006 ft 263 kts 83°
2026-04-24 00:26 25.67002 -80.22390 4996 ft 263 kts 58°
2026-04-24 00:26 25.68398 -80.21107 5003 ft 267 kts 24°
2026-04-24 00:26 25.70240 -80.20918 5003 ft 272 kts 352°
2026-04-24 00:27 25.72009 -80.21688 5012 ft 275 kts 333°
2026-04-24 00:27 25.73690 -80.22694 5019 ft 275 kts 335°
2026-04-24 00:27 25.75435 -80.23573 5015 ft 275 kts 340°
2026-04-24 00:27 25.77225 -80.24324 5014 ft 275 kts 341°
2026-04-24 00:28 25.78986 -80.25078 5018 ft 274 kts 339°
2026-04-24 00:28 25.80748 -80.25879 5007 ft 273 kts 339°
2026-04-24 00:28 25.82506 -80.26678 5014 ft 273 kts 339°
2026-04-24 00:28 25.84274 -80.27468 5011 ft 274 kts 339°
2026-04-24 00:29 25.86037 -80.28259 5014 ft 271 kts 339°
2026-04-24 00:29 25.87724 -80.29020 5002 ft 250 kts 340°
2026-04-24 00:29 25.89267 -80.29716 4994 ft 228 kts 339°
2026-04-24 00:29 25.90670 -80.30346 5289 ft 201 kts 339°
2026-04-24 00:30 25.92006 -80.30947 6029 ft 216 kts 338°
2026-04-24 00:30 25.93365 -80.31557 6764 ft 209 kts 337°
2026-04-24 00:30 25.94768 -80.32189 7491 ft 219 kts 336°
2026-04-24 00:30 25.96180 -80.32825 8215 ft 223 kts 336°
2026-04-24 00:31 25.97618 -80.33471 8965 ft 222 kts 336°
2026-04-24 00:31 25.99059 -80.34120 9726 ft 224 kts 336°
2026-04-24 00:31 26.00519 -80.34778 10446 ft 229 kts 336°
2026-04-24 00:31 26.02008 -80.35450 11149 ft 232 kts 335°
2026-04-24 00:32 26.03513 -80.36128 11871 ft 235 kts 335°
2026-04-24 00:32 26.05036 -80.36814 12609 ft 237 kts 335°
2026-04-24 00:32 26.06572 -80.37507 13365 ft 239 kts 335°
2026-04-24 00:32 26.08125 -80.38207 14108 ft 242 kts 335°
2026-04-24 00:33 26.09695 -80.38916 14813 ft 245 kts 335°
2026-04-24 00:33 26.11282 -80.39632 15518 ft 247 kts 335°
2026-04-24 00:33 26.12886 -80.40356 16247 ft 250 kts 335°
2026-04-24 00:33 26.14507 -80.41089 16995 ft 253 kts 335°
2026-04-24 00:34 26.16147 -80.41830 17761 ft 256 kts 335°
2026-04-24 00:34 26.17805 -80.42579 18519 ft 259 kts 335°
2026-04-24 00:34 26.19486 -80.43339 19202 ft 263 kts 335°
2026-04-24 00:34 26.21199 -80.44114 19913 ft 268 kts 335°
2026-04-24 00:35 26.22936 -80.44899 20621 ft 272 kts 335°
2026-04-24 00:35 26.24702 -80.45698 21360 ft 276 kts 335°
2026-04-24 00:35 26.26487 -80.46506 22145 ft 274 kts 335°
2026-04-24 00:35 26.28287 -80.47321 22906 ft 286 kts 335°
2026-04-24 00:36 26.30200 -80.48192 23456 ft 310 kts 335°
2026-04-24 00:36 26.32281 -80.49136 23893 ft 335 kts 335°
2026-04-24 00:36 26.33746 -80.49799 24163 ft 351 kts 335°
2026-04-24 00:36 26.36089 -80.50860 24573 ft 376 kts 335°
2026-04-24 00:37 26.38571 -80.51985 24984 ft 391 kts 335°
2026-04-24 00:37 26.41109 -80.53134 25392 ft 394 kts 335°
2026-04-24 00:37 26.44521 -80.54682 25937 ft 398 kts 335°
2026-04-24 00:37 26.46226 -80.55458 26209 ft 402 kts 335°
2026-04-24 00:38 26.48839 -80.56593 26616 ft 404 kts 339°
2026-04-24 00:38 26.51552 -80.57446 27039 ft 405 kts 341°
2026-04-24 00:38 26.54269 -80.58301 27463 ft 408 kts 340°
2026-04-24 00:38 26.57011 -80.59185 27911 ft 412 kts 340°
2026-04-24 00:39 26.59781 -80.60069 28354 ft 414 kts 340°
2026-04-24 00:39 26.62558 -80.60945 28801 ft 415 kts 340°
2026-04-24 00:39 26.65342 -80.61827 29250 ft 417 kts 340°
2026-04-24 00:39 26.68144 -80.62721 29714 ft 421 kts 340°
2026-04-24 00:40 26.70980 -80.63626 30182 ft 426 kts 340°
2026-04-24 00:40 26.73844 -80.64536 30583 ft 429 kts 340°
2026-04-24 00:40 26.76712 -80.65447 30989 ft 430 kts 339°
2026-04-24 00:40 26.79653 -80.66390 31062 ft 450 kts 339°
2026-04-24 00:41 26.82738 -80.67380 31077 ft 472 kts 340°
2026-04-24 00:41 26.85969 -80.68408 31082 ft 490 kts 340°
2026-04-24 00:41 26.92577 -80.70576 31074 ft 494 kts 337°
2026-04-24 00:42 26.99055 -80.73050 31072 ft 491 kts 337°
2026-04-24 00:42 27.05554 -80.75494 31072 ft 494 kts 337°
2026-04-24 00:43 27.12072 -80.77969 31072 ft 494 kts 337°
2026-04-24 00:43 27.18568 -80.80428 31069 ft 491 kts 336°
2026-04-24 00:44 27.25042 -80.82889 31069 ft 492 kts 336°
2026-04-24 00:44 27.31549 -80.85362 31071 ft 495 kts 336°
2026-04-24 00:45 27.38012 -80.88005 31071 ft 492 kts 335°
2026-04-24 00:45 27.44434 -80.90633 31078 ft 490 kts 335°
2026-04-24 00:46 27.50852 -80.93283 31074 ft 494 kts 335°
2026-04-24 00:46 27.57307 -80.95937 31076 ft 492 kts 335°
2026-04-24 00:47 27.63722 -80.98588 31075 ft 490 kts 335°
2026-04-24 00:47 27.70159 -81.01249 31077 ft 494 kts 335°
2026-04-24 00:48 27.76571 -81.03899 31075 ft 492 kts 335°
2026-04-24 00:48 27.82993 -81.06561 31071 ft 491 kts 335°
2026-04-24 00:49 27.89425 -81.09230 31071 ft 494 kts 335°
2026-04-24 00:49 27.95889 -81.11913 31074 ft 494 kts 335°
2026-04-24 00:50 28.02321 -81.14588 31075 ft 491 kts 335°
2026-04-24 00:50 28.08840 -81.17021 31094 ft 495 kts 338°
2026-04-24 00:51 28.15437 -81.19398 31093 ft 498 kts 337°
2026-04-24 00:51 28.22017 -81.21784 31092 ft 494 kts 337°
2026-04-24 00:52 28.28587 -81.24161 31104 ft 498 kts 337°
2026-04-24 00:52 28.35186 -81.26558 31110 ft 497 kts 337°
2026-04-24 00:53 28.41763 -81.28949 31105 ft 498 kts 336°
2026-04-24 00:53 28.48386 -81.31357 31110 ft 500 kts 337°
2026-04-24 00:54 28.55108 -81.33419 31078 ft 505 kts 346°
2026-04-24 00:54 28.62122 -81.34011 31076 ft 510 kts 351°
2026-04-24 00:55 28.69225 -81.34489 31098 ft 512 kts 351°
2026-04-24 00:55 28.76287 -81.34946 31096 ft 507 kts 351°
2026-04-24 00:56 28.83371 -81.35422 31102 ft 511 kts 351°
2026-04-24 00:56 28.90431 -81.35881 31109 ft 507 kts 351°
2026-04-24 00:57 28.97478 -81.36353 30628 ft 502 kts 352°
2026-04-24 00:57 29.04198 -81.36794 29100 ft 466 kts 352°
2026-04-24 00:58 29.07393 -81.37019 28330 ft 455 kts 352°
2026-04-24 00:58 29.10534 -81.37240 27572 ft 451 kts 353°
2026-04-24 00:58 29.13662 -81.37452 26848 ft 450 kts 353°
2026-04-24 00:58 29.16782 -81.37661 26141 ft 447 kts 353°
2026-04-24 00:59 29.19860 -81.37870 25534 ft 440 kts 353°
2026-04-24 00:59 29.22893 -81.38078 24960 ft 434 kts 353°
2026-04-24 00:59 29.25897 -81.38285 24391 ft 431 kts 354°
2026-04-24 00:59 29.28924 -81.38494 24094 ft 446 kts 354°
2026-04-24 01:00 29.32076 -81.38708 24100 ft 456 kts 354°
2026-04-24 01:00 29.35246 -81.38913 24099 ft 457 kts 354°
2026-04-24 01:00 29.38421 -81.39124 24021 ft 456 kts 354°
2026-04-24 01:00 29.41536 -81.39335 23268 ft 439 kts 354°
2026-04-24 01:01 29.44518 -81.39535 22443 ft 420 kts 354°
2026-04-24 01:01 29.47393 -81.39730 21645 ft 409 kts 354°
2026-04-24 01:01 29.50211 -81.39930 20865 ft 404 kts 353°
2026-04-24 01:01 29.52956 -81.40491 20106 ft 400 kts 343°
2026-04-24 01:02 29.55555 -81.41582 19378 ft 397 kts 334°
2026-04-24 01:02 29.57936 -81.43151 18659 ft 393 kts 324°
2026-04-24 01:02 29.60026 -81.45133 17881 ft 387 kts 315°
2026-04-24 01:02 29.61821 -81.47246 17115 ft 381 kts 313°
2026-04-24 01:03 29.63657 -81.49403 16625 ft 372 kts 313°
2026-04-24 01:03 29.65468 -81.51517 16137 ft 372 kts 314°
2026-04-24 01:03 29.67281 -81.53642 15647 ft 372 kts 313°
2026-04-24 01:03 29.69090 -81.55765 15163 ft 373 kts 314°
2026-04-24 01:04 29.70969 -81.57933 15099 ft 391 kts 314°
2026-04-24 01:04 29.72903 -81.60146 15013 ft 391 kts 314°
2026-04-24 01:04 29.74968 -81.62180 15005 ft 393 kts 323°
2026-04-24 01:04 29.77298 -81.63742 14999 ft 394 kts 333°
2026-04-24 01:05 29.79870 -81.64837 14870 ft 392 kts 343°
2026-04-24 01:05 29.82501 -81.65369 14428 ft 375 kts 353°
2026-04-24 01:05 29.85056 -81.65582 14009 ft 364 kts 355°
2026-04-24 01:05 29.87567 -81.65808 13547 ft 362 kts 355°
2026-04-24 01:06 29.90082 -81.66045 13081 ft 365 kts 355°
2026-04-24 01:06 29.92673 -81.66279 13007 ft 382 kts 355°
2026-04-24 01:06 29.95326 -81.66577 13009 ft 384 kts 353°
2026-04-24 01:06 29.97994 -81.66771 12997 ft 385 kts
2026-04-24 01:07 30.00679 -81.66678 13002 ft 387 kts
2026-04-24 01:07 30.03369 -81.66620 13006 ft 386 kts
2026-04-24 01:07 30.06056 -81.66574 13007 ft 386 kts
2026-04-24 01:07 30.08745 -81.66528 13008 ft 386 kts
2026-04-24 01:08 30.11432 -81.66486 13009 ft 386 kts
2026-04-24 01:08 30.14119 -81.66443 13013 ft 387 kts
2026-04-24 01:08 30.16811 -81.66413 13014 ft 388 kts
2026-04-24 01:08 30.19509 -81.66391 13014 ft 387 kts
2026-04-24 01:09 30.22201 -81.66372 13013 ft 386 kts
2026-04-24 01:09 30.24894 -81.66354 13031 ft 387 kts
2026-04-24 01:09 30.27588 -81.66337 13030 ft 387 kts
2026-04-24 01:09 30.30281 -81.66320 13031 ft 386 kts
2026-04-24 01:10 30.32968 -81.66303 13032 ft 387 kts
2026-04-24 01:10 30.35662 -81.66286 13019 ft 388 kts
2026-04-24 01:10 30.38359 -81.66269 13009 ft 387 kts
2026-04-24 01:10 30.41049 -81.66272 13003 ft 386 kts 358°
2026-04-24 01:11 30.43696 -81.66762 12988 ft 387 kts 341°
2026-04-24 01:11 30.46025 -81.68306 12989 ft 387 kts 320°
2026-04-24 01:11 30.47738 -81.70668 12678 ft 379 kts 301°
2026-04-24 01:11 30.48628 -81.73438 12033 ft 359 kts 283°
2026-04-24 01:12 30.48986 -81.76244 11218 ft 345 kts 276°
2026-04-24 01:12 30.49160 -81.78975 10428 ft 335 kts 274°
2026-04-24 01:12 30.49266 -81.81643 9619 ft 327 kts 273°
2026-04-24 01:12 30.49353 -81.84244 8780 ft 319 kts 273°
2026-04-24 01:13 30.49432 -81.86790 7967 ft 313 kts 271°
2026-04-24 01:13 30.49116 -81.89250 7138 ft 309 kts 250°
2026-04-24 01:13 30.47938 -81.91296 6326 ft 307 kts 225°
2026-04-24 01:13 30.46119 -81.92534 5479 ft 305 kts 199°
2026-04-24 01:14 30.44019 -81.92799 4650 ft 303 kts 179°
2026-04-24 01:14 30.41980 -81.92349 3951 ft 296 kts 156°
2026-04-24 01:14 30.40487 -81.90911 3974 ft 270 kts 126°
2026-04-24 01:14 30.40062 -81.88903 4077 ft 266 kts 76°
2026-04-24 01:15 30.41181 -81.87299 4095 ft 267 kts 34°
2026-04-24 01:15 30.42953 -81.86532 3896 ft 267 kts 12°
2026-04-24 01:15 30.44640 -81.85863 4162 ft 247 kts 38°
2026-04-24 01:15 30.45551 -81.84235 3866 ft 254 kts 69°
2026-04-24 01:16 30.46136 -81.82203 3250 ft 272 kts 73°
2026-04-24 01:16 30.46745 -81.80133 3070 ft 270 kts 72°
2026-04-24 01:16 30.47324 -81.78242 2288 ft 220 kts 75°
2026-04-24 01:16 30.47667 -81.77010 1911 ft 130 kts 78°
2026-04-24 01:17 30.47927 -81.76052 1364 ft 120 kts 78°
2026-04-24 01:17 30.48211 -81.75115 1109 ft 119 kts 82°
2026-04-24 01:17 30.48437 -81.74185 947 ft 122 kts 79°
2026-04-24 01:17 30.48684 -81.73240 747 ft 119 kts 79°
2026-04-24 01:18 30.48944 -81.72357 510 ft 110 kts 75°
2026-04-24 01:18 30.49191 -81.71470 342 ft 120 kts 75°
2026-04-24 01:18 30.49465 -81.70528 174 ft 125 kts 75°
2026-04-24 01:18 30.49748 -81.69601 41 ft 114 kts 75°
2026-04-24 01:19 30.49960 -81.68878 30 ft 60 kts 69°
2026-04-24 01:19 30.50021 -81.68678 32 ft 32 kts 72°
2026-04-24 01:19 30.50104 -81.68416 35 ft 41 kts 72°
2026-04-24 01:19 30.50209 -81.68072 34 ft 46 kts 71°
2026-04-24 01:20 30.50284 -81.67832 31 ft 19 kts 72°
2026-04-24 01:20 30.50327 -81.67675 29 ft 22 kts 74°
2026-04-24 01:20 30.50326 -81.67600 28 ft 6 kts 159°
2026-04-24 01:20 30.50272 -81.67580 27 ft 11 kts 162°
2026-04-24 01:21 30.50227 -81.67565 26 ft 1 kts 177°
2026-04-24 01:21 30.50206 -81.67567 26 ft 11 kts 195°
2026-04-24 01:21 30.50146 -81.67701 29 ft 24 kts 251°
2026-04-24 01:21 30.50088 -81.67869 33 ft 21 kts 247°
2026-04-24 01:22 30.50014 -81.67966 32 ft 17 kts 149°
2026-04-24 01:22 30.49917 -81.67931 30 ft 10 kts 159°
2026-04-24 01:22 30.49840 -81.67899 31 ft 13 kts 167°
2026-04-24 01:22 30.49741 -81.67906 31 ft 16 kts 188°
2026-04-24 01:23 30.49658 -81.67886 31 ft 11 kts 110°
2026-04-24 01:23 30.49681 -81.67814 32 ft 11 kts 27°
2026-04-24 01:23 30.49744 -81.67781 33 ft 10 kts 21°
2026-04-24 01:23 30.49773 -81.67773 32 ft 0 kts